map of GBE home
GBE - Airport
Location
City:  Gaborone, South-East, Botswana
Name:Sir Seretse Khama International Airport
ICAO:FBSK
IATA:GBE

Details
Type:Airport (Aerodrome, Airfield)
Use:Public/Civil, International (customs port of entry)
Latitude:2433'19"S (-24.555224)
Longitude:2555'06"E (25.918208)
Datum:WGS 1984
Elevation:3299 ft (1006 m)
Variation:15.67W (WMM2015 magnetic declination)
-0.06 annual change
Runways:1
Longest:9843 × 148 ft (3000 × 45 m), paved

Time
Time Zone:UTC+2
Local Time:

Weather
METAR:FBSK 221500Z 04009KT 360V070 CAVOK 29/12 Q1020 NOSIG
TAF:FBSK 212100Z 2200/2306 04015G25KT 9999 SCT025 FEW035CB PRO40
TEMPO 2200/2206 04015G25 TSRA OVC012
FM220900 03012KT 9990 SCT025
BECMG 2212/2214 FEW040CB
BECMG 2216/2218 CAVOK

Related Locations
Nearby:
Farthest:HNM: 12146 mi / 19547 km
Hana, Maui, HI, US

Find:

   beyond  
but within

Other Information
Maps:
NOTAMs:
Links:
Sources:

  
flag of Botswana   

Sectional Chart

Flight Planning
at skyvector.com

Satellite Image

Google Maps Satellite view

 

Copyright © 2004-2017 Karl L. Swartz. All rights reserved.
The Great Circle Mapper name and logo are trademarks of the Great Circle Mapper.
All other trademarks mentioned herein belong to their respective owners.
Please see credits for attibutions and further copyright information.

  Follow gcmap on Facebook Follow gcmap on Twitter Follow gcmap on Google+ GCmap on LinkedIn

hCard Microformat

Geo Microformat